Regional Weather Roundup
Issued by NWS New Orleans/Baton Rouge, LA

Home | Current Version | Previous Version | Text Only | Print | Product List | Glossary On
Versions: 1 2 3 4 5 6 7 8 9 10 11 12 13 14 15 16 17 18 19 20 21 22 23 24 25 26 27
000
ASUS44 KLIX 271713
RWRLIX
NEW ORLEANS REGIONAL WEATHER ROUNDUP
NATIONAL WEATHER SERVICE NEW ORLEANS LA
1200 PM CDT THU APR 27 2017

NOTE: "FAIR" INDICATES FEW OR NO CLOUDS BELOW 12,000 FEET WITH NO
      SIGNIFICANT WEATHER AND/OR OBSTRUCTIONS TO VISIBILITY.
      SKY/WX - SKY CONDITION AND SIGNIFICANT WEATHER.
      TMP - AIR TEMPERATURE.     DP    - DEWPOINT TEMPERATURE.
      RH  - RELATIVE HUMIDITY.   PRES  - PRESSURE.
      HI  - HEAT INDEX.          WCI   - WIND CHILL INDEX.

*  THESE STATIONS ARE NOT NWS OR FAA STATIONS AND ARE NOT UNDER
   NWS QUALITY CONTROL.

LAZ038-040-048-061>063-065>067-069-271800-
SOUTHEAST LOUISIANA

CITY           SKY/WX    TMP DP  RH WIND       PRES   REMARKS
N.O. INTL ARPT MOSUNNY   71  60  68 NW9       29.84F
N.O. LAKEFRONT SUNNY     70  60  70 NW8       29.85F
N.O. DOWNTOWN*   N/A     73  60  63 VRB6        N/A
RESERVE*       NOT AVBL
SLIDELL        MOSUNNY   76  59  55 CALM      29.83F
BATON ROUGE    SUNNY     68  55  63 CALM      29.85F
BOOTHVILLE     CLOUDY    72  65  78 VRB5      29.86R
BELLE CHASSE   MOSUNNY   76  63  64 VRB6      29.83F
BOGALUSA*      NOT AVBL
GALLIANO*      SUNNY     76  61  59 N5        29.84F
NEW ROADS*       N/A     65  55  67 E3        29.87S
GONZALES*        N/A     69  56  62 CALM      29.84F
HAMMOND*       SUNNY     72  54  53 N5        29.85F
HOUMA*         SUNNY     75  63  64 N3        29.83F
PORT FOURCHON* CLOUDY    75  64  69 N9        29.84S

$$

MSZ070-080>082-271800-
SOUTHERN MISSISSIPPI

CITY           SKY/WX    TMP DP  RH WIND       PRES   REMARKS
MCCOMB         CLOUDY    63  53  70 NE6       29.87F
GULFPORT       SUNNY     77  62  59 CALM      29.82F
BILOXI         MOSUNNY   79  64  59 CALM      29.82F
PASCAGOULA     SUNNY     81  63  54 VRB3      29.82F
STENNIS ARPT*  SUNNY     73  57  56 NE7       29.84F

$$

COASTAL OBSERVATIONS
LAKE AND NEARSHORE STATIONS

STATION/POSITION TIME  TEMP    WIND        PRES    WAVE
                       AIR SEA DIR/SP/G            HT/PER
                 (UTC) (F)     (DEG/KT/KT) (MB)    (FT/S)
PASCAGOULA       1648   78     210/  6/  7 1009.6
WAVELAND YACHT   1642   71 75  360/  5/  7 1010.1
GRAND ISLE       1648   73 75   20/  7/ 10 1010.3
SOUTHWEST PASS   1648           20/ 10/ 13   N/A
NEW CANAL        1648   67 74  340/  4/  7 1010.7
SHELL BEACH      1642   68 76  330/  8/ 10 1010.6

OFFSHORE STATIONS

STATION/POSITION TIME  TEMP    WIND        PRES    WAVE
                       AIR SEA DIR/SP/G            HT/PER
                 (UTC) (F)     (DEG/KT/KT) (MB)    (FT/S)
64 S DAUPHIN ISL 1650   76 75  200/ 12/ 16 1010.5

$$





USA.gov is the U.S. government's official web portal to all federal, state and local government web resources and services.